OpenBCM V1.13 (Linux)

Packet Radio Mailbox

DB0FHN

[JN59NK Nuernberg]

 Login: GUEST





  
I0OJJ  > AMSAT    28.08.26 02:40l 331 Lines 15647 Bytes #999 (0) @ WW
BID : 4CQ_IR0EQ
Read: GUEST DJ6UX
Subj: 2Line Orbital Elements
Path: DB0FHN<OE2XZR<OK1TOR<SR6DWH<SR1BSZ<EA2RCF<IR0EQ
Sent: 260828/0026z @:IR0EQ.ITA.EU [Rome] $:4CQ_IR0EQ

>From i0ojj@rgate.ampr.org Fri Aug 28 02:26:00 2026
Received: from rgate.ampr.org by rgate.ampr.org (JNOS2.0q.1) with SMTP
	id AA5642 ; Fri, 28 Aug 2026 02:26:00 +0200
Received: by rgate.ampr.org with SMTP
	id AA5639 ; Fri, 28 Aug 2026 02:25:22 +0200
Message-Id: <5640@rgate.ampr.org>
>From: i0ojj@rgate.ampr.org

SB KEPS @ AMSAT  $ORB26240.1
2Line Orbital Elements 26240.AMSAT

QST de W1STR

AMSAT Orbital Elements for Amateur Satellites in TLE Format
>From Orbital Analysis Office
New England Sci-Tech STEM Education Center
Natick MA August 28, 2026
To all radio amateurs


These element sets describe the orbits of various satellites 
in use by the amateur radio community. For details see:
www.amsat.org/keplerian-elements-formats/

A daily update of element sets is available at:
www.amsat.org/tle/daily-bulletin.txt
or without bulletin text:
www.amsat.org/tle/dailytle.txt


AO-07
1 07530U 74089B   26239.50316250 -.00000023  00000-0  14410-3 0  9996
2 07530 101.9921 253.4954 0012224 357.0539 159.2062 12.53699328369455
UO-11
1 14781U 84021B   26239.83455848  .00001399  00000-0  14734-3 0  9997
2 14781  97.8135 204.6446 0006436 316.8259  43.2453 14.90951547267804
LO-19
1 20442U 90005G   26239.48507347  .00000096  00000-0  50961-4 0  9996
2 20442  98.8839 263.2495 0011515   2.7532 357.3713 14.34140329912611
AO-27
1 22825U 93061C   26239.60145436  .00000088  00000-0  50339-4 0  9999
2 22825  98.6823 306.9683 0007321 247.6942 112.3465 14.30957843717213
FO-29
1 24278U 96046B   26239.80379450  .00000008  00000-0  47385-4 0  9995
2 24278  98.5185  78.8588 0348799 270.5957  85.5234 13.53277364482855
GO-32
1 25397U 98043D   26239.43096149  .00000053  00000-0  43273-4 0  9999
2 25397  99.0130 234.0063 0001882  46.0189 314.1144 14.24440158461478
ISS
1 25544U 98067A   26239.53072227  .00008959  00000-0  16667-3 0  9990
2 25544  51.6325 306.9725 0007720  89.1136 271.0737 15.49656235582817
NO-44
1 26931U 01043C   26239.47088256  .00000102  00000-0  69148-4 0  9996
2 26931  67.0498  59.8954 0005645 270.5847  89.4608 14.31978587300652
SO-50
1 27607U 02058C   26239.42802767  .00000913  00000-0  12491-3 0  9998
2 27607  64.5509 268.5450 0072963 249.4057 109.9212 14.83180765275024
CO-55
1 27844U 03031E   26239.82959332  .00000254  00000-0  12881-3 0  9999
2 27844  98.6766 247.4968 0009195 344.9709  15.1196 14.24373166201877
RS-22
1 27939U 03042A   26239.86157556  .00001073  00000-0  17302-3 0  9991
2 27939  98.3482  66.2615 0012234  45.9576  66.0808 14.73577836226100
CO-65
1 32785U 08021C   26239.89463830  .00005333  00000-0  33172-3 0  9992
2 32785  97.8345 222.8638 0009840 136.2532 223.9477 15.10031580996010
CO-66
1 32791U 08021J   26238.98160231  .00017066  00000-0  50492-3 0  9997
2 32791  97.7550 240.3966 0004648  77.3931 282.7830 15.34970799998144
RS-30
1 32953U 08025A   26239.88494087  .00000041  00000-0  22093-3 0  9991
2 32953  82.5065 310.8501 0020282 152.5813 207.6342 12.43182187828602
SRMSAT
1 37841U 11058D   26239.47855086  .00000382  00000-0  63200-4 0  9991
2 37841  19.9733 347.9521 0011599 268.8978 167.2895 14.11588830767907
ZACUBE-1
1 39417U 13066B   26239.85243846  .00006382  00000-0  48724-3 0  9999
2 39417  97.8055 202.5352 0041637  13.3033 346.9279 15.01647532691485
Delfi-N3xt
1 39428U 13066N   26239.57124229  .00007772  00000-0  66399-3 0  9995
2 39428  97.8293 159.8376 0072678 330.2604  29.4494 14.95889985685291
GOMX-1
1 39430U 13066Q   26239.81535582  .00001696  00000-0  25944-3 0  9993
2 39430  97.6448  75.7634 0127351 206.7654 152.6945 14.69640163680433
LO-74
1 39440U 13066AA  26239.59346264  .00003144  00000-0  28977-3 0  9995
2 39440  97.8948 188.9149 0057787 149.1840 211.2793 14.94171676687651
AO-73
1 39444U 13066AE  26239.49560446  .00007378  00000-0  44729-3 0  9994
2 39444  97.8339 212.5022 0034422 323.5570  36.3316 15.10377192690428
DTUSAT-2
1 40030U 14033W   26239.48315115  .00007691  00000-0  40590-3 0  9992
2 40030  98.0902 241.7982 0007693   5.5087 354.6227 15.15830355663482
LILACSAT-2
1 40908U 15049K   26239.87665073  .00018150  00000-0  28479-3 0  9992
2 40908  97.4589 279.5353 0006118   8.8261 351.3098 15.53717878606878
Lapan A3
1 41603U 16040E   26239.91263096  .00003526  00000-0  11099-3 0  9992
2 41603  97.1544 233.7427 0011929 113.9090 246.3404 15.33504946565806
CAS-2T
1 41847U 16066G   26239.64162772  .00000556  00000-0  88193-4 0  9999
2 41847  98.3776 314.5593 0340037 272.7477  83.4847 14.44817423515114
TechnoSat
1 42829U 17042E   26239.84902943  .00004029  00000-0  28490-3 0  9991
2 42829  97.4372  34.8354 0016909 205.6062 154.4330 15.05312631497481
AO-91
1 43017U 17073E   26239.36273854  .00009578  00000-0  40584-3 0  9996
2 43017  97.4600 105.1252 0149750  82.7380 279.0846 15.13644175476159
S-Net D
1 43186U 18014G   26239.70154216  .00004996  00000-0  25425-3 0  9993
2 43186  97.5277 144.0433 0009533 123.1279 237.0870 15.17244501469607
S-Net B
1 43187U 18014H   26239.71444037  .00004688  00000-0  23897-3 0  9997
2 43187  97.5282 144.0448 0010217 119.5828 240.6424 15.17213034469602
S-Net A
1 43188U 18014J   26239.70003117  .00005086  00000-0  25864-3 0  9996
2 43188  97.5294 144.2531 0010119 120.1778 240.0459 15.17252874469601
S-Net C
1 43189U 18014K   26239.71874779  .00004750  00000-0  24204-3 0  9992
2 43189  97.5312 144.3572 0011579 114.5686 245.6755 15.17203264468153
Ten-Koh
1 43677U 18084G   26239.48863500  .00002577  00000-0  19537-3 0  9993
2 43677  98.0752  74.8644 0008590 236.1554 123.8853 15.03191190426878
PO-101
1 43678U 18084H   26239.85296919  .00001475  00000-0  12165-3 0  9995
2 43678  98.1196  79.2152 0010531 292.4231  67.5875 15.00682188426967
QO-100
1 43700U 18090A   26239.83137227  .00000144  00000-0  00000+0 0  9995
2 43700   0.0094 125.2005 0002549  61.9982 113.9390  1.00272613 28399
MinXSS-2
1 43758U 18099A   26239.65197235  .00044682  00000-0  74415-3 0  9992
2 43758  97.4484 318.2694 0005807  10.2644 349.8726 15.51875078425192
AO-95
1 43770U 18099N   26239.61712080  .00011607  00000-0  42571-3 0  9992
2 43770  97.4323 299.6448 0010113  96.0677 264.1715 15.28084326424122
SNUSat 2
1 43782U 18099AA  26239.58510566  .00008094  00000-0  34845-3 0  9997
2 43782  97.4007 291.8969 0011182  52.5012 307.7239 15.22812115423890
SnugLite
1 43784U 18099AC  26239.59511116  .00010511  00000-0  38084-3 0  9998
2 43784  97.3809 293.2181 0003940  60.4445 299.7187 15.28551954424221
ITASat 1
1 43786U 18099AE  26239.40852280  .00007159  00000-0  33617-3 0  9991
2 43786  97.3972 289.5137 0014056 102.9075 257.3731 15.19837376423728
EAGLET 1
1 43790U 18099AJ  26239.40497810  .00004263  00000-0  24195-3 0  9994
2 43790  97.4175 287.1858 0012724  98.8753 261.3919 15.13404180423101
ESEO
1 43792U 18099AL  26239.55221237  .00001184  00000-0  88746-4 0  9992
2 43792  97.3935 273.8758 0014033  90.0771 270.2064 15.04432576422532
JO-97
1 43803U 18099AX  26239.16396022  .00017423  00000-0  50232-3 0  9998
2 43803  97.4073 302.3281 0005791  34.1600 326.0016 15.35766429424517
Suomi 100
1 43804U 18099AY  26239.13920315  .00011996  00000-0  41583-3 0  9992
2 43804  97.4131 299.3200 0010210  38.1544 322.0418 15.29924431424268
ISAT
1 43879U 18111D   26239.40123455  .00277209  00000-0  12109-2 0  9991
2 43879  97.5820 180.9709 0007611 104.4101 255.8013 15.83955120422364
UWE-4
1 43880U 18111E   26239.30882103  .00040503  00000-0  70970-3 0  9990
2 43880  97.5822 171.2017 0009821  74.5565 285.6770 15.50428203421786
Sparrow
1 43881U 18111F   26228.98401838  .16116594  28263-5  19760-3 0  9992
2 43881  97.5857 177.1140 0010462 202.8700 157.2139 16.49385238421037
Prox-1
1 44339U 19036A   26239.64772449  .00014619  00000-0  13738-2 0  9992
2 44339  23.9962 356.3171 0005705 136.1947 223.9005 14.92120069384156
Taurus 1
1 44530U 19059C   26239.79944987  .00002739  00000-0  43756-3 0  9998
2 44530  98.6478  49.1362 0009608  88.5818 271.6488 14.72741303369181
TO-108
1 44881U 19093C   26239.86488492  .00000053  00000-0  11984-4 0  9993
2 44881  97.7487 310.3322 0012694 205.7140 154.3446 14.86609780362067
RS-44
1 44909U 19096E   26239.53938458  .00000039  00000-0  11532-3 0  9995
2 44909  82.5206 292.2995 0217001 337.8292  21.3531 12.79748948311474
SALSAT
1 46495U 20068K   26239.81286459  .00007765  00000-0  26404-3 0  9993
2 46495  97.8878 247.3002 0010920  57.7473 302.4824 15.30702998326312
CSS (TIANHE-1)
1 48274U 21035A   26239.71895109  .00018742  00000-0  23475-3 0  9994
2 48274  41.4674 247.7756 0001736 252.7132 107.3516 15.59328221304334
TeikyoSat 4
1 49396U 21102B   26239.50838757  .00001715  00000-0  10994-3 0  9992
2 49396  97.3649 266.2178 0013316  52.7192 307.5250 15.09724416263487
Z-Sat
1 49399U 21102E   26239.89285684  .00003567  00000-0  17437-3 0  9998
2 49399  97.3291 273.0452 0016409   3.4143 356.7201 15.18746571264321
KOSEN 1
1 49402U 21102H   26239.55527992  .00007099  00000-0  26418-3 0  9990
2 49402  97.3136 280.3497 0011993 320.8317  39.2053 15.27734425264914
HO-113
1 50466U 21131B   26239.83257242  .00000400  00000-0  13710-3 0  9993
2 50466  98.4983 331.8336 0003025 232.4743 127.6171 14.41412884245436
SNUGLITE 2
1 52899U 22065F   26239.63854939  .00000954  00000-0  18929-3 0  9997
2 52899  98.2302  24.3868 0008052 151.3355 208.8291 14.64459992221455
UmKA 1 (RS40S)
1 57172U 23091G   26239.86004181  .00006007  00000-0  26952-3 0  9997
2 57172  97.4991 298.2925 0011333 223.4347 136.5997 15.21516836174905
CubeBel-2 (EU11S)
1 57175U 23091K   26239.79979905  .00012600  00000-0  42621-3 0  9994
2 57175  97.4993 303.7146 0008603 212.2464 147.8252 15.30724787175253
RS-38S
1 57189U 23091Z   26239.82321417  .00017736  00000-0  47438-3 0  9998
2 57189  97.5039 310.8310 0007428 162.5507 197.5994 15.38092532175698
